When you browse on this site, cookies collect data to enhance your experience and personalize the content and advertising you see.
Visit our Privacy Policy to learn more. By continuing to use the site, you agree to this use of cookies and data.
  • Em Portugal
  • Lista de países
  • Para 7 dias
  • Temperatura da água
  • Mapa do tempo
  • Widgets de tempo
  • user-avatar
    Iniciar Sessão

    Previsão horária em Vanadzor

    Hoje, 17 Fevereiro, Segunda-feira

    Tempo Temperatura Precipitação Vento Pressão Humidade
    00:00 -7°C° 0 mm 1 m/s 637 mmHg 86%
    01:00 -7°C° 0 mm 1 m/s 637 mmHg 87%
    02:00 -8°C° 0 mm 1 m/s 637 mmHg 88%
    03:00 -8°C° 0 mm 1 m/s 637 mmHg 88%
    04:00 -8°C° 0 mm 1 m/s 637 mmHg 89%
    05:00 -8°C° 0 mm 1 m/s 637 mmHg 90%
    06:00 -8°C° 0 mm 1 m/s 637 mmHg 91%
    07:00 -7°C° 0 mm 1 m/s 637 mmHg 91%
    08:00 -8°C° 0 mm 2 m/s 638 mmHg 91%
    09:00 -7°C° 0 mm 2 m/s 638 mmHg 92%
    10:00 -6°C° 0.2 mm 2 m/s 638 mmHg 91%
    11:00 -5°C° 0.2 mm 2 m/s 638 mmHg 91%
    12:00 -4°C° 0.2 mm 2 m/s 638 mmHg 90%
    13:00 -4°C° 0.1 mm 2 m/s 638 mmHg 90%
    14:00 -4°C° 0.1 mm 2 m/s 638 mmHg 90%
    15:00 -3°C° 0.1 mm 2 m/s 638 mmHg 89%
    16:00 -4°C° 0.1 mm 2 m/s 638 mmHg 91%
    17:00 -5°C° 0.1 mm 2 m/s 638 mmHg 94%
    18:00 -4°C° 0.1 mm 1 m/s 638 mmHg 96%
    19:00 -4°C° 0 mm 1 m/s 639 mmHg 96%
    20:00 -6°C° 0 mm 1 m/s 639 mmHg 96%
    21:00 -6°C° 0 mm 1 m/s 639 mmHg 96%
    22:00 -7°C° 0 mm 1 m/s 639 mmHg 96%
    23:00 -7°C° 0 mm 1 m/s 639 mmHg 95%

    Amanhã, 18 Fevereiro, Terça-feira

    Tempo Temperatura Precipitação Vento Pressão Humidade
    00:00 -8°C° 0 mm 0 m/s 639 mmHg 95%
    01:00 -8°C° 0 mm 1 m/s 639 mmHg 93%
    02:00 -8°C° 0 mm 1 m/s 639 mmHg 92%
    03:00 -8°C° 0 mm 1 m/s 639 mmHg 90%
    04:00 -8°C° 0 mm 1 m/s 639 mmHg 89%
    05:00 -8°C° 0 mm 1 m/s 639 mmHg 87%
    06:00 -7°C° 0 mm 1 m/s 639 mmHg 86%
    07:00 -6°C° 0 mm 1 m/s 640 mmHg 85%
    08:00 -4°C° 0 mm 1 m/s 640 mmHg 84%
    09:00 -2°C° 0 mm 1 m/s 641 mmHg 84%
    10:00 -1°C° 0 mm 1 m/s 641 mmHg 84%
    11:00 0°C° 0 mm 1 m/s 640 mmHg 84%
    12:00 +1°C° 0 mm 1 m/s 640 mmHg 84%
    13:00 +1°C° 0 mm 1 m/s 640 mmHg 84%
    14:00 +2°C° 0 mm 1 m/s 640 mmHg 84%
    15:00 +2°C° 0 mm 1 m/s 640 mmHg 85%
    16:00 0°C° 0 mm 1 m/s 639 mmHg 84%
    17:00 -3°C° 0 mm 2 m/s 638 mmHg 84%
    18:00 -5°C° 0 mm 2 m/s 638 mmHg 84%
    19:00 -5°C° 0 mm 2 m/s 638 mmHg 82%
    20:00 -5°C° 0 mm 2 m/s 638 mmHg 80%
    21:00 -5°C° 0 mm 2 m/s 638 mmHg 77%
    22:00 -5°C° 0 mm 2 m/s 638 mmHg 78%
    23:00 -5°C° 0 mm 2 m/s 638 mmHg 78%

    Depois de amanhã, 19 Fevereiro, Quarta-feira

    Tempo Temperatura Precipitação Vento Pressão Humidade
    00:00 -6°C° 0 mm 2 m/s 638 mmHg 78%
    01:00 -6°C° 0 mm 2 m/s 637 mmHg 80%
    02:00 -6°C° 0 mm 2 m/s 637 mmHg 81%
    03:00 -6°C° 0 mm 2 m/s 637 mmHg 82%
    04:00 -6°C° 0 mm 2 m/s 636 mmHg 83%
    05:00 -7°C° 0 mm 3 m/s 636 mmHg 83%
    06:00 -7°C° 0 mm 3 m/s 636 mmHg 84%
    07:00 -6°C° 0 mm 3 m/s 636 mmHg 83%
    08:00 -5°C° 0 mm 3 m/s 636 mmHg 82%
    09:00 -3°C° 0 mm 2 m/s 636 mmHg 82%
    10:00 -2°C° 0 mm 2 m/s 635 mmHg 82%
    11:00 +1°C° 0 mm 2 m/s 635 mmHg 82%
    12:00 +2°C° 0 mm 2 m/s 635 mmHg 82%
    13:00 +2°C° 0 mm 2 m/s 634 mmHg 81%
    14:00 +4°C° 0 mm 1 m/s 634 mmHg 80%
    15:00 +4°C° 0 mm 1 m/s 634 mmHg 80%
    16:00 +3°C° 0 mm 1 m/s 633 mmHg 79%
    17:00 +2°C° 0 mm 1 m/s 633 mmHg 79%
    18:00 +1°C° 0 mm 1 m/s 632 mmHg 79%
    19:00 0°C° 0 mm 1 m/s 632 mmHg 77%
    20:00 0°C° 0 mm 1 m/s 632 mmHg 75%
    21:00 0°C° 0 mm 1 m/s 632 mmHg 73%
    22:00 0°C° 0 mm 1 m/s 632 mmHg 74%
    23:00 0°C° 0 mm 1 m/s 632 mmHg 75%

    20 Fevereiro, Quinta-feira

    Tempo Temperatura Precipitação Vento Pressão Humidade
    00:00 -1°C° 0 mm 0 m/s 632 mmHg 77%
    01:00 0°C° 0 mm 1 m/s 631 mmHg 77%
    02:00 -1°C° 0 mm 1 m/s 631 mmHg 76%
    03:00 -1°C° 0 mm 1 m/s 631 mmHg 76%
    04:00 -1°C° 0 mm 1 m/s 630 mmHg 76%
    05:00 -2°C° 0 mm 0 m/s 630 mmHg 75%
    06:00 -2°C° 0 mm 0 m/s 630 mmHg 75%
    07:00 -1°C° 0 mm 0 m/s 630 mmHg 74%
    08:00 0°C° 0 mm 0 m/s 630 mmHg 74%
    09:00 +1°C° 0 mm 0 m/s 630 mmHg 73%
    10:00 +1°C° 0 mm 0 m/s 630 mmHg 75%
    11:00 +3°C° 0 mm 1 m/s 630 mmHg 77%
    12:00 +4°C° 0 mm 1 m/s 630 mmHg 79%
    13:00 +4°C° 0.1 mm 1 m/s 630 mmHg 80%
    14:00 +4°C° 0.1 mm 1 m/s 629 mmHg 82%
    15:00 +4°C° 0.1 mm 1 m/s 629 mmHg 84%
    16:00 +3°C° 0 mm 1 m/s 629 mmHg 86%
    17:00 +1°C° 0 mm 0 m/s 628 mmHg 89%
    18:00 0°C° 0 mm 0 m/s 628 mmHg 91%
    19:00 0°C° 0 mm 0 m/s 628 mmHg 91%
    20:00 +1°C° 0 mm 1 m/s 629 mmHg 91%
    21:00 +1°C° 0 mm 1 m/s 629 mmHg 91%
    22:00 0°C° 0 mm 1 m/s 629 mmHg 91%
    23:00 0°C° 0 mm 1 m/s 629 mmHg 91%

    21 Fevereiro, Sexta-feira

    Tempo Temperatura Precipitação Vento Pressão Humidade
    00:00 -1°C° 0 mm 1 m/s 629 mmHg 91%
    01:00 -1°C° 0 mm 1 m/s 629 mmHg 90%
    02:00 -3°C° 0 mm 2 m/s 629 mmHg 90%
    03:00 -3°C° 0 mm 2 m/s 629 mmHg 89%
    04:00 -3°C° 0 mm 2 m/s 629 mmHg 89%
    05:00 -3°C° 0 mm 2 m/s 629 mmHg 89%
    06:00 -3°C° 0 mm 2 m/s 629 mmHg 88%
    07:00 -2°C° 0 mm 2 m/s 630 mmHg 87%
    08:00 -1°C° 0 mm 2 m/s 630 mmHg 85%
    09:00 -1°C° 0 mm 2 m/s 631 mmHg 83%
    16:00 +2°C° 0 mm 2 m/s 630 mmHg 82%
    17:00 +1°C° 0 mm 2 m/s 631 mmHg 85%
    18:00 -1°C° 0 mm 2 m/s 631 mmHg 88%
    19:00 -1°C° 0 mm 2 m/s 631 mmHg 88%
    20:00 -1°C° 0 mm 2 m/s 632 mmHg 88%
    21:00 -2°C° 0 mm 2 m/s 632 mmHg 88%
    22:00 -2°C° 0 mm 2 m/s 632 mmHg 88%
    23:00 -2°C° 0 mm 2 m/s 632 mmHg 87%

    22 Fevereiro, Sábado

    Tempo Temperatura Precipitação Vento Pressão Humidade
    00:00 0°C° 0 mm 1 m/s 633 mmHg 87%
    01:00 0°C° 0 mm 1 m/s 632 mmHg 87%
    02:00 -2°C° 0 mm 2 m/s 632 mmHg 87%
    03:00 -2°C° 0 mm 2 m/s 632 mmHg 87%
    04:00 -3°C° 0 mm 2 m/s 632 mmHg 86%
    05:00 -3°C° 0 mm 2 m/s 632 mmHg 86%
    06:00 -3°C° 0 mm 2 m/s 632 mmHg 85%
    07:00 0°C° 0 mm 1 m/s 633 mmHg 84%
    08:00 +1°C° 0 mm 1 m/s 633 mmHg 83%
    09:00 +2°C° 0 mm 1 m/s 633 mmHg 82%
    10:00 +3°C° 0 mm 1 m/s 633 mmHg 81%
    11:00 +4°C° 0 mm 1 m/s 633 mmHg 79%
    12:00 +5°C° 0 mm 1 m/s 634 mmHg 78%
    13:00 +5°C° 0 mm 1 m/s 633 mmHg 78%
    14:00 +4°C° 0 mm 0 m/s 633 mmHg 79%
    15:00 +4°C° 0 mm 0 m/s 633 mmHg 79%
    16:00 +3°C° 0.1 mm 0 m/s 633 mmHg 84%
    17:00 +2°C° 0.1 mm 0 m/s 632 mmHg 89%
    18:00 +1°C° 0.1 mm 0 m/s 632 mmHg 94%
    19:00 +1°C° 0.1 mm 0 m/s 632 mmHg 94%
    20:00 0°C° 0.1 mm 0 m/s 632 mmHg 95%
    21:00 0°C° 0.1 mm 0 m/s 633 mmHg 96%
    22:00 0°C° 0.1 mm 0 m/s 633 mmHg 96%
    23:00 0°C° 0.1 mm 0 m/s 633 mmHg 96%
    Mostrar mais